Weather History for Avoca, PA

Change the Weather History Date:

Tuesday, February 26, 2013

  Actual Average Record
Temperature  
Mean Temperature 34 °F 31 °F  
Max Temperature 41 °F 40 °F 66 °F (1976)
Min Temperature 27 °F 23 °F 1 °F (1970)
Degree Days  
Heating Degree Days 31 34  
Month to date heating degree days 952 948  
Since 1 July heating degree days 4169 4539  
Cooling Degree Days 0 0  
Month to date cooling degree days 0 0  
Year to date cooling degree days 0 0  
Moisture  
Dew Point 25 °F    
Average Humidity 64    
Maximum Humidity 82    
Minimum Humidity 46    
Precipitation  
Precipitation 0.21 in 0.07 in 1.24 in (1908)
Month to date precipitation 0.91 1.89  
Year to date precipitation 2.93 4.26  
Sea Level Pressure  
Sea Level Pressure 30.10 in    
Wind  
Wind Speed 7 mph (ENE)    
Max Wind Speed 18 mph    
Max Gust Speed 30 mph    
Visibility 9 miles    
Events Rain , Snow    
T = Trace of Precipitation, MM = Missing Value Source: NWS Daily Summary

Daily Weather History Graph

Daily Weather History Graph

Search for Another Location

Airport:

Trip Planner

Search our weather history database for the weather conditions in past years. The results will help you decide how hot, cold, wet, or windy it might be!

Date:

Astronomy

Feb. 26, 2013 Rise Set
Actual Time 6:41 AM EST 5:50 PM EST
Civil Twilight 6:13 AM EST 6:18 PM EST
Nautical Twilight 5:41 AM EST 6:50 PM EST
Astronomical Twilight 5:09 AM EST 7:22 PM EST
Moon 7:06 PM EST 6:41 AM EST
Length of Visible Light 12h 04m
Length of Day
11h 08m
Full, 99% of the Moon is Illuminated
Feb 26
Full
Mar 4
Last Quarter
Mar 11
New
Mar 19
First Quarter
Mar 27
Full

Hourly Weather History & Observations

Time (EST) Temp. Windchill Dew Point Humidity Pressure Visibility Wind Dir Wind Speed Gust Speed Precip Events Conditions
12:54 AM 30.0 °F 25.2 °F 21.9 °F 72% 30.23 in 10.0 mi Variable 4.6 mph - N/A   Clear
1:54 AM 27.0 °F 21.6 °F 21.9 °F 81% 30.24 in 10.0 mi ESE 4.6 mph - N/A   Clear
2:54 AM 28.0 °F 21.7 °F 21.9 °F 78% 30.23 in 10.0 mi NE 5.8 mph - N/A   Clear
3:54 AM 28.0 °F 21.7 °F 21.9 °F 78% 30.22 in 10.0 mi NE 5.8 mph - N/A   Clear
4:54 AM 27.0 °F 20.5 °F 21.9 °F 81% 30.22 in 10.0 mi ENE 5.8 mph - N/A   Clear
5:54 AM 27.0 °F 21.6 °F 21.9 °F 81% 30.21 in 10.0 mi NE 4.6 mph - N/A   Clear
6:54 AM 28.0 °F 24.2 °F 21.9 °F 78% 30.20 in 10.0 mi Variable 3.5 mph - N/A   Clear
7:54 AM 30.0 °F 25.2 °F 23.0 °F 75% 30.23 in 10.0 mi Variable 4.6 mph - N/A   Clear
8:54 AM 33.1 °F 28.7 °F 24.1 °F 70% 30.24 in 10.0 mi NE 4.6 mph - N/A   Clear
9:54 AM 36.0 °F 32.1 °F 25.0 °F 64% 30.22 in 9.0 mi NNE 4.6 mph - N/A   Clear
10:54 AM 39.0 °F 34.0 °F 21.9 °F 50% 30.22 in 10.0 mi Variable 6.9 mph - N/A   Clear
11:54 AM 39.9 °F 33.4 °F 21.9 °F 49% 30.19 in 10.0 mi SSE 10.4 mph 21.9 mph N/A   Clear
12:54 PM 41.0 °F 34.7 °F 23.0 °F 49% 30.16 in 10.0 mi SE 10.4 mph 21.9 mph N/A   Clear
1:54 PM 39.9 °F 33.4 °F 25.0 °F 55% 30.14 in 10.0 mi ESE 10.4 mph 23.0 mph N/A   Partly Cloudy
2:54 PM 41.0 °F 36.4 °F 25.0 °F 53% 30.12 in 10.0 mi Variable 6.9 mph 21.9 mph N/A   Mostly Cloudy
3:54 PM 39.9 °F 34.5 °F 27.0 °F 60% 30.09 in 10.0 mi ESE 8.1 mph - N/A   Overcast
4:54 PM 39.0 °F 35.7 °F 27.0 °F 62% 30.04 in 10.0 mi Variable 4.6 mph - N/A   Overcast
5:01 PM 39.2 °F 33.6 °F 26.6 °F 61% 30.02 in 10.0 mi ESE 8.1 mph - N/A   Overcast
5:54 PM 37.0 °F 32.4 °F 28.9 °F 73% 30.04 in 7.0 mi Variable 5.8 mph - 0.01 in Rain Light Rain
6:54 PM 35.1 °F 28.6 °F 30.9 °F 85% 30.01 in 4.0 mi NE 8.1 mph - 0.03 in Snow Light Snow
7:54 PM 35.1 °F 27.4 °F 30.0 °F 82% 29.96 in 6.0 mi ENE 10.4 mph - 0.04 in Rain Rain
8:54 PM 35.1 °F 30.1 °F 28.9 °F 78% 29.93 in 10.0 mi Variable 5.8 mph 24.2 mph 0.03 in   Overcast
9:54 PM 34.0 °F 26.6 °F 28.0 °F 79% 29.90 in 10.0 mi ENE 9.2 mph 18.4 mph 0.05 in Rain Light Rain
10:54 PM 33.1 °F 22.2 °F 27.0 °F 78% 29.84 in 10.0 mi ENE 17.3 mph 27.6 mph 0.00 in Rain Light Rain
11:46 PM 33.8 °F 24.8 °F 26.6 °F 75% 29.79 in 6.0 mi ENE 12.7 mph 24.2 mph 0.03 in Rain Light Rain
11:54 PM 33.1 °F 25.5 °F 27.0 °F 78% 29.81 in 4.0 mi ENE 9.2 mph 23.0 mph 0.04 in Rain Rain